SCP
-0 -1 0 0 0 0 -0 -0 -0 -0 -0 -0 -0 -0 -0 -0 -0 -0 -0 -0 -0 -0 -0 -0 -0 -0 -0 -0 -0 -0 -0 -0 -0 -0 -0 0 0 0 0 0 0 0 0
-0 -0 0 0 0 0 0 0 -0 -0 -0 -0 -0 -0 -0 -0 -0 -0 -0 -0 -0 -0 -0 -0 -0 -0 -0 -0 0 -0 -0 -0 0 0 0 0 0 0 0 0 0 0 0
0 0 0 1 0 0 0 0 0 -0 -0 -0 -0 -0 -0 -0 -0 -0 -0 -0 -0 -0 -0 -0 -0 -0 -0 0 0 0 0 0 0 0 0 0 0 0 0 0 0 0 0
0 1 1 1 1 0 0 0 0 0 0 -0 -0 -0 -0 -0 -0 -0 -0 -0 -0 -0 -0 -0 -0 -0 -0 0 0 0 0 0 0 0 0 0 0 0 0 0 0 0 0
0 1 1 1 1 1 0 0 0 0 0 -0 -0 -0 -0 -0 -0 -0 -0 -0 -0 -0 -0 -0 -0 -0 0 0 0 0 0 0 0 0 0 0 0 0 0 0 0 0 0
0 0 0 1 1 1 0 0 0 0 0 0 0 -0 -0 -0 -0 -0 -0 -0 -0 -0 -0 -0 -0 0 0 0 0 0 0 0 0 0 0 0 0 1 0 0 0 0 0
0 1 1 1 1 1 0 1 0 0 0 0 0 0 0 0 0 0 -0 -0 -0 -0 -0 -0 0 0 0 0 0 0 0 0 0 0 0 0 0 1 0 0 0 0 0
0 1 1 1 1 1 1 1 1 0 0 0 0 0 0 0 0 0 0 0 0 -0 0 0 0 0 0 0 0 0 0 0 0 0 0 0 0 0 0 0 0 0 0
2 2 1 0 0 1 1 1 1 0 0 0 0 0 0 0 0 0 0 0 0 0 0 0 0 0 0 0 0 0 0 0 0 0 0 0 0 0 0 0 0 0 0
2 3 1 1 0 0 0 1 1 0 0 0 0 0 0 0 0 0 0 0 0 0 0 0 0 0 0 0 0 0 0 0 0 -0 0 0 0 0 0 0 0 1 0
2 2 1 1 0 0 0 1 1 0 0 0 0 0 0 0 0 0 0 0 0 0 0 0 0 0 0 0 0 0 0 0 0 0 0 1 1 1 1 1 1 1 1
2 2 2 2 0 0 0 0 0 0 0 0 0 0 0 0 0 0 0 0 0 0 0 0 0 0 0 -0 0 0 0 0 0 0 0 1 1 1 1 1 1 1 0
0 2 2 2 2 0 1 0 0 0 0 0 0 0 0 0 0 0 0 0 0 0 0 0 0 0 0 0 0 0 0 0 0 0 0 0 0 0 0 0 0 0 0
0 0 2 2 3 3 2 1 0 0 0 0 0 0 0 0 0 0 0 0 0 0 0 0 0 0 0 0 0 0 0 0 0 0 0 0 0 0 0 0 0 0 0
0 0 1 2 3 3 5 2 1 0 0 0 0 0 0 0 0 0 0 0 0 0 0 0 0 0 0 0 0 0 0 0 0 0 0 0 0 0 0 0 0 0 0
0 0 0 1 1 2 5 2 2 1 1 0 0 0 0 0 0 0 0 0 0 0 0 0 0 0 0 0 1 0 0 0 0 0 0 0 0 0 0 0 0 0 0
0 0 0 0 2 2 3 5 3 1 1 0 0 1 0 0 1 0 0 0 0 0 0 0 0 0 0 0 0 1 1 1 0 0 0 0 0 0 0 0 0 0 0
0 0 0 0 1 2 3 4 4 2 1 1 0 0 0 0 0 0 0 0 0 0 0 0 0 0 0 0 0 0 1 1 1 0 0 0 0 0 0 0 0 0 0
0 0 0 0 1 2 3 5 3 4 1 1 1 1 1 0 0 0 0 0 1 0 0 0 0 0 0 0 0 0 0 0 0 0 0 0 0 0 0 0 0 0 0
0 0 0 0 1 2 3 4 5 5 2 1 1 1 1 0 0 0 0 0 1 0 0 0 0 0 0 0 0 0 0 0 0 0 0 0 0 0 0 0 0 0 0
0 0 0 0 2 3 5 5 4 4 3 2 2 1 1 0 0 0 0 1 1 0 1 1 1 0 0 0 0 -0 0 0 0 0 0 0 0 0 0 0 0 0 0
0 0 0 0 1 2 3 5 5 4 3 3 2 2 1 0 0 0 0 1 1 0 1 1 1 1 0 0 0 0 -0 0 -0 -0 0 0 0 0 0 0 0 0 0
0 0 0 0 0 1 2 5 4 4 3 5 3 2 1 1 1 1 1 1 2 1 1 2 1 1 1 0 0 0 0 0 0 0 0 0 0 0 0 0 0 0 0
0 0 0 0 0 1 1 4 3 4 3 3 3 2 2 1 1 1 3 4 2 1 4 2 1 1 0 0 0 0 0 0 0 0 0 0 0 0 0 0 0 0 0
0 0 0 0 0 1 1 3 4 4 6 5 4 5 2 2 2 2 2 3 3 2 1 0 0 0 0 0 0 0 0 0 0 0 0 0 0 0 0 0 0 0 0
0 0 0 0 0 0 0 1 2 3 3 2 5 6 1 1 4 3 2 3 2 1 0 0 0 0 0 0 0 0 0 0 0 0 0 0 0 0 0 0 0 0 0
Wind_Speed_500mb
6 14 46 54 44 36 31 28 27 31 31 28 22 21 19 23 25 25 26 26 27 27 26 25 24 21 18 11 6 7 7 6 5 6 6 6 4 1 2 3 7 12 9
4 14 46 51 39 35 33 30 27 32 33 28 23 21 19 23 26 26 25 26 26 26 24 21 19 18 16 8 4 3 5 7 8 9 10 8 3 2 0 2 1 6 6
6 15 48 45 38 37 34 32 28 32 34 28 25 19 19 23 26 24 24 26 25 24 22 18 14 16 15 9 5 5 6 9 10 11 12 4 16 16 9 8 7 4 7
10 18 49 47 42 39 34 32 29 28 33 29 24 19 19 23 25 24 25 26 26 23 18 15 15 14 11 7 7 7 8 10 12 13 11 6 13 26 22 19 16 14 16
13 22 39 47 45 39 36 32 29 25 30 30 25 21 21 24 25 25 24 26 26 22 17 15 13 12 10 9 9 10 11 12 14 14 10 14 13 19 25 32 29 27 27
11 20 40 49 45 40 37 32 28 24 24 30 25 22 23 25 26 26 25 27 25 20 16 13 12 10 11 12 13 13 13 14 14 14 18 20 26 34 36 32 29 33 36
12 28 31 50 47 42 38 34 27 26 24 26 25 23 25 27 25 26 25 27 25 19 14 10 10 11 12 13 13 15 16 16 17 17 22 27 24 33 42 37 35 35 36
13 30 31 47 51 44 38 35 30 26 24 27 26 26 27 27 27 26 25 26 24 18 15 12 13 13 13 13 14 15 17 19 20 21 24 25 30 42 48 43 41 41 39
8 30 28 38 55 49 43 39 33 28 26 27 28 28 28 28 28 26 26 26 22 19 17 16 15 14 14 14 15 17 19 20 21 19 21 26 33 37 48 46 42 42 45
12 19 24 36 54 52 47 42 36 30 28 28 28 28 29 29 29 27 27 27 23 20 18 18 17 15 15 17 19 19 19 17 13 12 17 24 32 35 33 34 37 38 42
11 29 32 38 40 40 39 48 41 35 32 30 29 29 28 25 29 26 25 24 22 21 19 18 17 16 18 18 17 19 18 15 17 20 23 23 27 33 35 39 42 45 46
11 20 36 41 43 42 37 44 43 41 36 34 33 32 27 23 21 18 24 26 23 21 18 15 16 17 16 11 25 25 19 13 19 17 29 35 34 36 38 39 44 47 45
7 28 28 44 49 46 43 39 36 34 33 32 33 34 29 27 24 23 18 24 22 18 14 14 14 13 9 13 9 15 18 20 17 20 30 38 39 38 43 47 46 43 41
15 18 33 40 44 51 45 40 38 35 34 33 35 36 35 30 27 27 19 16 16 18 10 17 13 15 14 11 11 14 16 16 18 18 39 38 39 45 45 43 42 37 37
21 18 24 43 56 54 45 43 42 39 40 36 37 37 35 31 30 27 25 21 18 18 18 15 14 15 11 11 11 14 14 17 20 20 34 42 45 46 44 42 42 42 44
28 25 26 32 45 65 50 48 45 42 40 39 37 36 37 31 34 29 28 25 23 20 15 16 13 13 11 11 16 15 16 20 22 25 21 37 41 46 40 38 41 41 41
31 32 31 35 37 60 65 55 51 43 40 39 36 38 38 34 38 32 28 26 24 21 22 21 16 10 11 13 15 20 18 23 21 24 25 18 27 35 39 44 37 44 47
41 37 36 33 42 50 67 60 51 45 43 40 38 36 38 37 34 34 28 26 23 21 16 15 13 14 14 13 18 20 22 28 25 22 19 21 17 17 30 40 46 49 47
39 40 40 40 42 53 60 69 61 51 47 41 39 38 39 39 36 32 29 26 28 20 18 17 16 15 14 15 18 21 22 22 17 14 19 18 18 22 22 34 45 44 40
42 37 43 42 41 50 60 64 65 58 52 46 44 39 44 39 37 37 31 30 30 20 19 18 18 15 15 17 19 21 21 16 12 11 16 18 19 26 26 29 28 32 41
42 36 36 44 48 46 57 65 68 68 59 50 46 45 44 42 40 38 32 34 30 23 21 23 15 15 10 17 16 18 22 25 18 14 12 18 23 25 30 26 26 27 25
46 39 36 38 48 54 46 64 70 65 57 53 47 50 48 44 40 39 33 29 29 22 20 18 20 12 10 17 9 17 13 12 11 19 9 18 19 33 26 27 29 31 32
48 45 40 36 40 46 52 52 67 62 58 58 52 47 47 47 42 40 37 28 33 26 20 26 12 11 8 15 8 11 14 14 18 10 17 21 31 22 28 29 29 32 30
50 45 39 36 37 43 45 63 65 70 68 62 57 48 49 52 46 40 42 36 31 23 28 20 15 12 16 6 5 10 13 16 12 16 27 24 24 33 35 29 29 32 28
49 47 44 35 36 40 48 58 64 73 69 59 59 55 52 55 50 44 43 44 40 27 32 15 12 15 17 7 4 1 7 6 14 20 28 32 28 32 34 33 28 27 35
46 46 44 38 36 37 41 46 64 67 78 63 67 62 51 49 51 47 45 41 38 32 23 20 15 13 8 3 3 8 14 10 14 17 25 30 36 35 32 23 29 31 35
Wind_Direction_500mb
335 261 180 177 175 173 178 176 184 187 182 176 173 157 145 137 140 148 152 153 153 154 156 158 159 161 163 157 147 153 182 197 199 191 172 159 149 122 116 137 137 24 291
104 225 178 176 176 179 179 179 183 189 183 180 174 164 149 143 148 152 156 157 158 159 162 163 167 176 176 173 167 197 219 215 207 190 176 155 70 45 135 202 252 244 236
193 221 183 185 180 185 181 179 181 183 185 183 175 172 154 150 152 158 161 162 162 163 167 169 168 172 182 200 231 239 223 224 215 194 186 229 288 308 289 282 284 265 271
174 196 188 186 186 185 181 181 180 181 187 186 180 180 164 158 157 164 166 168 168 169 170 178 177 182 198 225 246 250 240 233 225 207 194 338 266 282 296 286 281 280 285
175 189 193 186 187 185 181 183 183 186 192 187 187 184 173 166 165 171 173 175 175 176 179 183 192 204 214 228 245 250 250 249 238 225 249 267 277 268 281 286 281 278 279
187 189 205 190 185 190 185 185 187 191 195 192 192 188 177 174 175 178 180 180 179 183 186 193 204 217 232 239 250 257 259 258 255 246 267 279 276 265 277 284 287 285 281
192 197 212 192 188 188 191 189 191 192 197 200 197 192 184 181 184 184 184 181 181 186 191 194 205 227 243 254 255 263 269 268 258 262 270 276 274 273 281 286 295 300 293
194 211 210 200 191 190 193 197 195 191 194 201 199 198 192 188 188 189 188 187 190 193 204 219 227 239 245 254 268 275 280 280 276 284 283 278 277 277 282 286 291 298 296
137 189 215 209 191 190 195 198 198 194 194 199 200 198 197 195 193 193 194 194 197 204 216 228 239 245 262 275 283 287 289 289 291 280 280 287 277 279 289 292 291 294 294
195 173 188 185 192 192 193 196 199 196 196 197 200 197 198 198 196 198 197 201 207 214 223 234 247 262 280 289 293 296 298 301 334 307 296 270 274 293 297 298 296 299 301
184 218 171 183 189 187 190 197 195 197 195 194 196 198 196 195 196 202 198 210 219 226 233 248 264 277 287 289 327 321 313 328 290 294 278 281 286 297 300 299 301 303 301
225 200 183 188 187 187 194 197 193 196 196 194 194 193 185 190 188 193 224 216 225 230 240 257 270 285 293 331 295 324 342 316 303 294 286 287 291 298 304 304 305 306 305
214 207 206 199 185 192 195 195 185 189 188 187 189 191 171 194 191 187 224 229 224 233 251 292 298 317 308 273 263 287 296 296 298 297 288 294 291 305 309 308 310 309 305
244 242 218 206 200 191 201 191 192 191 189 189 193 191 182 189 198 191 209 208 211 240 215 238 250 252 249 260 276 287 292 299 302 301 297 290 300 310 310 313 310 308 306
248 234 243 215 205 199 197 190 196 196 194 192 196 195 194 190 198 196 204 205 220 213 236 226 240 250 256 277 288 289 286 292 295 296 309 307 311 311 309 309 308 308 308
244 236 226 237 219 198 199 194 197 198 200 192 199 200 194 193 200 198 200 208 214 216 225 232 240 244 264 268 272 263 283 285 292 296 294 309 310 316 319 314 308 309 309
241 234 226 225 228 210 202 197 199 204 203 198 200 202 193 196 212 190 201 203 211 216 213 220 232 252 254 262 274 264 281 292 300 295 301 290 302 316 320 318 316 315 315
245 234 231 220 224 221 210 204 199 206 204 204 200 202 198 198 202 193 203 202 204 208 221 221 233 238 241 254 270 285 278 287 284 288 309 299 295 300 321 318 316 319 325
238 234 231 229 221 221 220 208 202 206 204 206 202 201 200 198 198 194 198 201 198 203 215 220 226 237 249 269 275 280 282 287 286 292 281 305 318 316 316 312 319 329 329
232 229 230 226 221 227 223 215 209 203 203 205 203 201 201 193 197 193 196 191 204 195 214 218 228 243 245 273 279 279 274 265 273 283 299 312 314 309 323 316 318 325 325
231 227 230 226 219 221 222 218 211 204 202 201 201 195 200 195 203 199 188 195 191 199 206 221 237 241 260 292 297 282 265 298 303 343 286 303 311 312 325 318 325 312 311
233 228 234 231 228 219 229 225 218 210 203 202 200 198 197 203 203 192 182 201 201 202 203 215 216 211 277 297 300 300 291 228 316 338 298 311 315 311 320 316 319 314 320
230 230 230 232 240 241 223 237 220 208 206 202 197 198 193 196 191 183 176 192 208 175 207 207 209 225 258 293 300 340 315 314 326 96 321 319 311 336 323 324 327 318 318
229 231 228 232 233 230 233 229 219 213 204 198 196 195 191 191 187 176 184 188 193 173 203 192 209 191 204 258 331 338 328 335 344 3 330 327 333 327 322 324 324 325 324
230 233 230 229 234 229 226 232 221 215 205 197 196 194 190 189 189 182 184 194 183 178 201 208 220 195 198 156 146 51 328 331 343 4 324 321 322 327 324 327 325 335 329
229 231 231 226 232 233 233 228 223 217 215 204 192 189 186 180 177 185 184 186 175 189 191 197 178 175 163 123 166 15 333 328 3 10 321 325 330 331 334 337 335 335 336
Wind_Speed_850mb
6 14 46 54 44 36 31 28 27 31 31 28 22 21 19 23 25 25 26 26 27 27 26 25 24 21 18 11 6 7 7 6 5 6 6 6 4 1 2 3 7 12 9
4 14 46 51 39 35 33 30 27 32 33 28 23 21 19 23 26 26 25 26 26 26 24 21 19 18 16 8 4 3 5 7 8 9 10 8 3 2 0 2 1 6 6
6 15 48 45 38 37 34 32 28 32 34 28 25 19 19 23 26 24 24 26 25 24 22 18 14 16 15 9 5 5 6 9 10 11 12 4 16 16 9 8 7 4 7
10 18 49 47 42 39 34 32 29 28 33 29 24 19 19 23 25 24 25 26 26 23 18 15 15 14 11 7 7 7 8 10 12 13 11 6 13 26 22 19 16 14 16
13 22 39 47 45 39 36 32 29 25 30 30 25 21 21 24 25 25 24 26 26 22 17 15 13 12 10 9 9 10 11 12 14 14 10 14 13 19 25 32 29 27 27
11 20 40 49 45 40 37 32 28 24 24 30 25 22 23 25 26 26 25 27 25 20 16 13 12 10 11 12 13 13 13 14 14 14 18 20 26 34 36 32 29 33 36
12 28 31 50 47 42 38 34 27 26 24 26 25 23 25 27 25 26 25 27 25 19 14 10 10 11 12 13 13 15 16 16 17 17 22 27 24 33 42 37 35 35 36
13 30 31 47 51 44 38 35 30 26 24 27 26 26 27 27 27 26 25 26 24 18 15 12 13 13 13 13 14 15 17 19 20 21 24 25 30 42 48 43 41 41 39
8 30 28 38 55 49 43 39 33 28 26 27 28 28 28 28 28 26 26 26 22 19 17 16 15 14 14 14 15 17 19 20 21 19 21 26 33 37 48 46 42 42 45
12 19 24 36 54 52 47 42 36 30 28 28 28 28 29 29 29 27 27 27 23 20 18 18 17 15 15 17 19 19 19 17 13 12 17 24 32 35 33 34 37 38 42
11 29 32 38 40 40 39 48 41 35 32 30 29 29 28 25 29 26 25 24 22 21 19 18 17 16 18 18 17 19 18 15 17 20 23 23 27 33 35 39 42 45 46
11 20 36 41 43 42 37 44 43 41 36 34 33 32 27 23 21 18 24 26 23 21 18 15 16 17 16 11 25 25 19 13 19 17 29 35 34 36 38 39 44 47 45
7 28 28 44 49 46 43 39 36 34 33 32 33 34 29 27 24 23 18 24 22 18 14 14 14 13 9 13 9 15 18 20 17 20 30 38 39 38 43 47 46 43 41
15 18 33 40 44 51 45 40 38 35 34 33 35 36 35 30 27 27 19 16 16 18 10 17 13 15 14 11 11 14 16 16 18 18 39 38 39 45 45 43 42 37 37
21 18 24 43 56 54 45 43 42 39 40 36 37 37 35 31 30 27 25 21 18 18 18 15 14 15 11 11 11 14 14 17 20 20 34 42 45 46 44 42 42 42 44
28 25 26 32 45 65 50 48 45 42 40 39 37 36 37 31 34 29 28 25 23 20 15 16 13 13 11 11 16 15 16 20 22 25 21 37 41 46 40 38 41 41 41
31 32 31 35 37 60 65 55 51 43 40 39 36 38 38 34 38 32 28 26 24 21 22 21 16 10 11 13 15 20 18 23 21 24 25 18 27 35 39 44 37 44 47
41 37 36 33 42 50 67 60 51 45 43 40 38 36 38 37 34 34 28 26 23 21 16 15 13 14 14 13 18 20 22 28 25 22 19 21 17 17 30 40 46 49 47
39 40 40 40 42 53 60 69 61 51 47 41 39 38 39 39 36 32 29 26 28 20 18 17 16 15 14 15 18 21 22 22 17 14 19 18 18 22 22 34 45 44 40
42 37 43 42 41 50 60 64 65 58 52 46 44 39 44 39 37 37 31 30 30 20 19 18 18 15 15 17 19 21 21 16 12 11 16 18 19 26 26 29 28 32 41
42 36 36 44 48 46 57 65 68 68 59 50 46 45 44 42 40 38 32 34 30 23 21 23 15 15 10 17 16 18 22 25 18 14 12 18 23 25 30 26 26 27 25
46 39 36 38 48 54 46 64 70 65 57 53 47 50 48 44 40 39 33 29 29 22 20 18 20 12 10 17 9 17 13 12 11 19 9 18 19 33 26 27 29 31 32
48 45 40 36 40 46 52 52 67 62 58 58 52 47 47 47 42 40 37 28 33 26 20 26 12 11 8 15 8 11 14 14 18 10 17 21 31 22 28 29 29 32 30
50 45 39 36 37 43 45 63 65 70 68 62 57 48 49 52 46 40 42 36 31 23 28 20 15 12 16 6 5 10 13 16 12 16 27 24 24 33 35 29 29 32 28
49 47 44 35 36 40 48 58 64 73 69 59 59 55 52 55 50 44 43 44 40 27 32 15 12 15 17 7 4 1 7 6 14 20 28 32 28 32 34 33 28 27 35
46 46 44 38 36 37 41 46 64 67 78 63 67 62 51 49 51 47 45 41 38 32 23 20 15 13 8 3 3 8 14 10 14 17 25 30 36 35 32 23 29 31 35
Wind_Direction_850mb
335 261 180 177 175 173 178 176 184 187 182 176 173 157 145 137 140 148 152 153 153 154 156 158 159 161 163 157 147 153 182 197 199 191 172 159 149 122 116 137 137 24 291
104 225 178 176 176 179 179 179 183 189 183 180 174 164 149 143 148 152 156 157 158 159 162 163 167 176 176 173 167 197 219 215 207 190 176 155 70 45 135 202 252 244 236
193 221 183 185 180 185 181 179 181 183 185 183 175 172 154 150 152 158 161 162 162 163 167 169 168 172 182 200 231 239 223 224 215 194 186 229 288 308 289 282 284 265 271
174 196 188 186 186 185 181 181 180 181 187 186 180 180 164 158 157 164 166 168 168 169 170 178 177 182 198 225 246 250 240 233 225 207 194 338 266 282 296 286 281 280 285
175 189 193 186 187 185 181 183 183 186 192 187 187 184 173 166 165 171 173 175 175 176 179 183 192 204 214 228 245 250 250 249 238 225 249 267 277 268 281 286 281 278 279
187 189 205 190 185 190 185 185 187 191 195 192 192 188 177 174 175 178 180 180 179 183 186 193 204 217 232 239 250 257 259 258 255 246 267 279 276 265 277 284 287 285 281
192 197 212 192 188 188 191 189 191 192 197 200 197 192 184 181 184 184 184 181 181 186 191 194 205 227 243 254 255 263 269 268 258 262 270 276 274 273 281 286 295 300 293
194 211 210 200 191 190 193 197 195 191 194 201 199 198 192 188 188 189 188 187 190 193 204 219 227 239 245 254 268 275 280 280 276 284 283 278 277 277 282 286 291 298 296
137 189 215 209 191 190 195 198 198 194 194 199 200 198 197 195 193 193 194 194 197 204 216 228 239 245 262 275 283 287 289 289 291 280 280 287 277 279 289 292 291 294 294
195 173 188 185 192 192 193 196 199 196 196 197 200 197 198 198 196 198 197 201 207 214 223 234 247 262 280 289 293 296 298 301 334 307 296 270 274 293 297 298 296 299 301
184 218 171 183 189 187 190 197 195 197 195 194 196 198 196 195 196 202 198 210 219 226 233 248 264 277 287 289 327 321 313 328 290 294 278 281 286 297 300 299 301 303 301
225 200 183 188 187 187 194 197 193 196 196 194 194 193 185 190 188 193 224 216 225 230 240 257 270 285 293 331 295 324 342 316 303 294 286 287 291 298 304 304 305 306 305
214 207 206 199 185 192 195 195 185 189 188 187 189 191 171 194 191 187 224 229 224 233 251 292 298 317 308 273 263 287 296 296 298 297 288 294 291 305 309 308 310 309 305
244 242 218 206 200 191 201 191 192 191 189 189 193 191 182 189 198 191 209 208 211 240 215 238 250 252 249 260 276 287 292 299 302 301 297 290 300 310 310 313 310 308 306
248 234 243 215 205 199 197 190 196 196 194 192 196 195 194 190 198 196 204 205 220 213 236 226 240 250 256 277 288 289 286 292 295 296 309 307 311 311 309 309 308 308 308
244 236 226 237 219 198 199 194 197 198 200 192 199 200 194 193 200 198 200 208 214 216 225 232 240 244 264 268 272 263 283 285 292 296 294 309 310 316 319 314 308 309 309
241 234 226 225 228 210 202 197 199 204 203 198 200 202 193 196 212 190 201 203 211 216 213 220 232 252 254 262 274 264 281 292 300 295 301 290 302 316 320 318 316 315 315
245 234 231 220 224 221 210 204 199 206 204 204 200 202 198 198 202 193 203 202 204 208 221 221 233 238 241 254 270 285 278 287 284 288 309 299 295 300 321 318 316 319 325
238 234 231 229 221 221 220 208 202 206 204 206 202 201 200 198 198 194 198 201 198 203 215 220 226 237 249 269 275 280 282 287 286 292 281 305 318 316 316 312 319 329 329
232 229 230 226 221 227 223 215 209 203 203 205 203 201 201 193 197 193 196 191 204 195 214 218 228 243 245 273 279 279 274 265 273 283 299 312 314 309 323 316 318 325 325
231 227 230 226 219 221 222 218 211 204 202 201 201 195 200 195 203 199 188 195 191 199 206 221 237 241 260 292 297 282 265 298 303 343 286 303 311 312 325 318 325 312 311
233 228 234 231 228 219 229 225 218 210 203 202 200 198 197 203 203 192 182 201 201 202 203 215 216 211 277 297 300 300 291 228 316 338 298 311 315 311 320 316 319 314 320
230 230 230 232 240 241 223 237 220 208 206 202 197 198 193 196 191 183 176 192 208 175 207 207 209 225 258 293 300 340 315 314 326 96 321 319 311 336 323 324 327 318 318
229 231 228 232 233 230 233 229 219 213 204 198 196 195 191 191 187 176 184 188 193 173 203 192 209 191 204 258 331 338 328 335 344 3 330 327 333 327 322 324 324 325 324
230 233 230 229 234 229 226 232 221 215 205 197 196 194 190 189 189 182 184 194 183 178 201 208 220 195 198 156 146 51 328 331 343 4 324 321 322 327 324 327 325 335 329
229 231 231 226 232 233 233 228 223 217 215 204 192 189 186 180 177 185 184 186 175 189 191 197 178 175 163 123 166 15 333 328 3 10 321 325 330 331 334 337 335 335 336